Orbital Elements at Epoch 2459000.5 (2020-May-31.0) TDB
Reference: JPL 16 (heliocentric ecliptic J2000)
Element | Value | Uncertainty (1-sigma) | Units |
e | .08164179193007681 | 5.5959e-08 | |
a | 2.300470882639828 | 2.1854e-08 | au |
q | 2.112656317498147 | 1.3062e-07 | au |
i | 5.870178344563579 | 7.8035e-06 | deg |
node | 314.4871216767034 | 6.3674e-05 | deg |
peri | 118.8848242584227 | 9.2655e-05 | deg |
M | 45.29018985147614 | 6.0845e-05 | deg |
tp | 2458840.166165790352 (2019-Dec-22.66616579) | 0.00021644 | TDB |
period | 1274.452160716475 3.49 | 1.8161e-05 4.972e-08 | d yr |
n | .2824743141379386 | 4.0252e-09 | deg/d |
Q | 2.488285447781509 | 2.3638e-08 | au |
|
| | Orbit Determination Parameters
Additional Information
|